DT_LEITURA;HR_LEITURA;MED-PressaoAtm[hPa];VAL-TempExt[oC];VAL-UmidExt[%UR];VAL-TempInt[oC];VAL-UmidInt[%UR];Dir-Vento[grau];Vel-Vento[m/s];Precipitação[mm/h]
14/08/2026;00:04:00;1020,6;;;17,4;80;25;2,4;0,0
14/08/2026;00:09:00;1020,6;;;17,4;80;353;1,4;0,0
14/08/2026;00:14:00;1020,5;;;17,4;80;360;2,6;0,2
14/08/2026;00:19:00;1020,4;;;17,4;80;26;2,0;0,0
14/08/2026;00:24:00;1020,5;;;17,4;80;294;3,2;0,0
14/08/2026;00:29:00;1020,5;;;17,4;80;321;3,3;0,2
14/08/2026;00:34:00;1020,6;;;17,4;80;29;2,3;0,0
14/08/2026;00:39:00;1020,6;;;17,3;80;322;1,7;0,0
14/08/2026;00:44:00;1020,5;;;17,3;80;321;1,8;0,0
14/08/2026;00:49:00;1020,4;;;17,3;80;350;2,0;0,2
14/08/2026;00:54:00;1020,4;;;17,3;80;350;1,8;0,0
14/08/2026;00:59:00;1020,5;;;17,3;80;313;1,6;0,0
14/08/2026;01:04:00;1020,3;;;17,3;80;294;2,0;0,0
14/08/2026;01:09:00;1020,4;;;17,3;80;311;2,2;0,0
14/08/2026;01:14:00;1020,2;;;17,2;80;355;1,5;0,0
14/08/2026;01:19:00;1020,3;;;17,2;80;346;1,5;0,0
14/08/2026;01:24:00;1020,2;;;17,2;80;58;2,1;0,0
14/08/2026;01:29:00;1020,3;;;17,2;80;30;1,3;0,0
14/08/2026;01:34:00;1020,3;;;17,2;80;333;1,4;0,2
14/08/2026;01:39:00;1020,3;;;17,2;80;29;1,6;0,0
14/08/2026;01:44:00;1020,3;;;17,2;80;343;1,7;0,2
14/08/2026;01:49:00;1020,3;;;17,1;80;38;1,7;0,0
14/08/2026;01:54:00;1020,1;;;17,1;80;14;2,0;0,2
14/08/2026;01:59:00;1020,1;;;17,1;80;172;1,8;0,0
14/08/2026;02:04:00;1020,1;;;17,1;80;222;1,7;0,2
14/08/2026;02:09:00;1020,2;;;17,1;80;284;1,1;0,0
14/08/2026;02:14:00;1020,1;;;17,0;80;24;2,2;0,0
14/08/2026;02:19:00;1020,0;;;17,0;80;56;2,4;0,0
14/08/2026;02:24:00;1020,1;;;17,0;81;41;2,4;0,0
14/08/2026;02:29:00;1020,1;;;17,0;81;66;2,4;0,0
14/08/2026;02:34:00;1020,0;;;17,0;81;354;1,8;0,2
14/08/2026;02:39:00;1019,9;;;17,0;81;61;2,8;0,0
14/08/2026;02:44:00;1019,9;;;17,1;80;54;2,6;0,2
14/08/2026;02:49:00;1020,0;;;17,1;80;63;2,1;0,2
14/08/2026;02:54:00;1019,9;;;17,0;80;52;3,0;0,0
14/08/2026;02:59:00;1020,0;;;17,0;80;37;2,2;0,0
14/08/2026;03:04:00;1019,9;;;17,0;80;37;3,0;0,2
14/08/2026;03:09:00;1019,8;;;16,9;80;65;3,5;0,0
14/08/2026;03:14:00;1019,7;;;16,9;80;40;2,8;0,0
14/08/2026;03:19:00;1019,7;;;16,9;80;50;3,3;0,0
14/08/2026;03:24:00;1019,8;;;16,8;80;55;3,3;0,0
14/08/2026;03:29:00;1019,8;;;16,8;81;51;3,2;0,0
14/08/2026;03:34:00;1019,7;;;16,8;81;32;2,5;0,0
14/08/2026;03:39:00;1019,8;;;16,8;81;43;2,9;0,2
14/08/2026;03:44:00;1019,9;;;16,8;81;43;2,3;0,0
14/08/2026;03:49:00;1019,9;;;16,8;81;42;2,3;0,0
14/08/2026;03:54:00;1019,8;;;16,8;81;49;2,5;0,0
14/08/2026;03:59:00;1019,9;;;16,8;81;77;2,3;0,0
14/08/2026;04:04:00;1019,8;;;16,8;81;167;1,8;0,0
14/08/2026;04:09:00;1020,0;;;16,8;81;101;2,0;0,0
14/08/2026;04:14:00;1019,9;;;16,8;81;97;2,0;0,0
14/08/2026;04:19:00;1020,0;;;16,8;81;163;1,6;0,0
14/08/2026;04:24:00;1019,9;;;16,8;81;174;1,7;0,0
14/08/2026;04:29:00;1019,9;;;16,8;81;43;1,9;0,0
14/08/2026;04:34:00;1020,0;;;16,8;81;79;2,1;0,0
14/08/2026;04:39:00;1019,9;;;16,8;81;100;1,7;0,0
14/08/2026;04:44:00;1019,9;;;16,8;81;55;1,8;0,0
14/08/2026;04:49:00;1020,0;;;16,8;81;50;2,1;0,0
14/08/2026;04:54:00;1020,0;;;16,8;81;52;2,4;0,0
14/08/2026;04:59:00;1020,0;;;16,9;81;46;2,3;0,0
14/08/2026;05:04:00;1020,1;;;16,9;81;46;2,3;0,0
14/08/2026;05:09:00;1020,1;;;16,9;81;37;1,7;0,0
14/08/2026;05:14:00;1020,1;;;16,9;81;62;2,2;0,0
14/08/2026;05:19:00;1020,1;;;16,9;81;64;1,8;0,0
14/08/2026;05:24:00;1020,2;;;16,9;81;77;1,5;0,0
14/08/2026;05:29:00;1020,2;;;17,0;81;64;2,1;0,0
14/08/2026;05:34:00;1020,2;;;17,0;81;21;1,6;0,0
14/08/2026;05:39:00;1020,3;;;17,0;81;124;1,8;0,0
14/08/2026;05:44:00;1020,2;;;17,0;81;35;1,6;0,0
14/08/2026;05:49:00;1020,2;;;17,0;81;87;1,8;0,0
14/08/2026;05:54:00;1020,2;;;17,0;81;130;1,7;0,0
14/08/2026;05:59:00;1020,3;;;17,1;81;115;1,6;0,0
14/08/2026;06:04:00;1020,3;;;17,1;81;174;1,6;0,0
14/08/2026;06:09:00;1020,3;;;17,1;81;183;1,6;0,0
14/08/2026;06:14:00;1020,3;;;17,1;81;231;1,3;0,0
14/08/2026;06:19:00;1020,5;;;17,1;81;249;1,1;0,0
14/08/2026;06:24:00;1020,6;;;17,1;81;215;1,2;0,0
14/08/2026;06:29:00;1020,7;;;17,1;81;22;1,2;0,0
14/08/2026;06:34:00;1020,7;;;17,1;81;65;2,2;0,0
14/08/2026;06:39:00;1020,8;;;17,1;81;64;2,3;0,0
14/08/2026;06:44:00;1021,0;;;17,1;81;83;1,8;0,0
14/08/2026;06:49:00;1021,0;;;17,2;81;104;1,7;0,0
14/08/2026;06:54:00;1021,1;;;17,2;81;68;1,6;0,0
14/08/2026;06:59:00;1021,2;;;17,2;81;72;1,1;0,0
14/08/2026;07:04:00;1021,3;;;17,2;81;37;1,7;0,0
14/08/2026;07:09:00;1021,4;;;17,2;81;71;1,7;0,0
14/08/2026;07:14:00;1021,5;;;17,2;81;89;1,2;0,0
14/08/2026;07:19:00;1021,6;;;17,3;81;147;1,5;0,0
14/08/2026;07:24:00;1021,7;;;17,3;81;154;1,3;0,0
14/08/2026;07:29:00;1021,7;;;17,3;81;152;1,4;0,0
14/08/2026;07:34:00;1021,8;;;17,3;81;174;1,8;0,0
14/08/2026;07:39:00;1021,8;;;17,3;81;249;1,7;0,0
14/08/2026;07:44:00;1021,9;;;17,3;81;196;1,6;0,0
14/08/2026;07:49:00;1022,0;;;17,3;81;248;1,0;0,0
14/08/2026;07:54:00;1022,0;;;17,3;81;262;1,1;0,0
14/08/2026;07:59:00;1022,1;;;17,3;81;169;1,3;0,0
14/08/2026;08:04:00;1022,2;;;17,3;81;216;1,2;0,0
14/08/2026;08:09:00;1022,3;;;17,3;81;168;1,3;0,0
14/08/2026;08:14:00;1022,3;;;17,3;81;38;1,4;0,0
14/08/2026;08:19:00;1022,4;;;17,3;81;114;1,5;0,0
14/08/2026;08:24:00;1022,3;;;17,3;80;73;1,3;0,0
14/08/2026;08:29:00;1022,3;;;17,3;80;349;1,8;0,0
14/08/2026;08:34:00;1022,4;;;17,3;80;335;1,7;0,0
14/08/2026;08:39:00;1022,5;;;17,3;80;315;1,4;0,0
14/08/2026;08:44:00;1022,5;;;17,3;80;336;1,0;0,0
14/08/2026;08:49:00;1022,6;;;17,2;81;331;1,1;0,0
14/08/2026;08:54:00;1022,7;;;17,2;81;353;0,9;0,0
14/08/2026;08:59:00;1022,7;;;17,2;81;351;0,7;0,0
14/08/2026;09:04:00;1022,8;;;17,3;81;216;1,3;0,0
14/08/2026;09:09:00;1022,8;;;17,3;81;337;0,8;0,0
14/08/2026;09:14:00;1022,8;;;17,3;82;35;0,8;0,0
14/08/2026;09:19:00;1022,9;;;17,4;82;173;0,9;0,0
14/08/2026;09:24:00;1022,9;;;17,4;81;305;1,2;0,0
14/08/2026;09:29:00;1022,9;;;17,5;81;293;0,6;0,0
14/08/2026;09:34:00;1022,9;;;17,5;82;325;0,9;0,0
14/08/2026;09:39:00;1022,9;;;17,6;82;357;0,8;0,0
14/08/2026;09:44:00;1023,0;;;17,6;82;12;1,1;0,0
14/08/2026;09:49:00;1023,0;;;17,7;82;349;0,7;0,0
14/08/2026;09:54:00;1023,1;;;17,7;82;326;0,6;0,0
14/08/2026;09:59:00;1023,1;;;17,8;83;320;0,6;0,0
14/08/2026;10:04:00;1023,2;;;17,9;83;327;0,8;0,0
14/08/2026;10:09:00;1023,2;;;18,0;83;325;0,8;0,0
14/08/2026;10:14:00;1023,2;;;18,1;83;335;0,5;0,0
14/08/2026;10:19:00;1023,2;;;18,2;83;20;0,5;0,0
14/08/2026;10:24:00;1023,2;;;18,4;83;21;0,8;0,0
14/08/2026;10:29:00;1023,2;;;18,5;83;30;1,1;0,0
14/08/2026;10:34:00;1023,2;;;18,5;82;42;0,7;0,0
14/08/2026;10:39:00;1023,2;;;18,6;82;10;0,9;0,0
14/08/2026;10:44:00;1023,2;;;18,6;82;328;1,0;0,0
14/08/2026;10:49:00;1023,3;;;18,6;81;22;1,8;0,0
14/08/2026;10:54:00;1023,3;;;18,6;81;356;1,1;0,0
14/08/2026;10:59:00;1023,2;;;18,5;81;358;1,4;0,0
14/08/2026;11:04:00;1023,2;;;18,5;81;13;1,8;0,0
14/08/2026;11:09:00;1023,2;;;18,5;81;16;1,8;0,0
14/08/2026;11:14:00;1023,1;;;18,5;81;4;1,9;0,0
14/08/2026;11:19:00;1023,2;;;18,4;81;323;1,1;0,0
14/08/2026;11:24:00;1023,2;;;18,4;81;302;1,1;0,2
14/08/2026;11:29:00;1023,1;;;18,3;81;228;1,7;0,2
14/08/2026;11:34:00;1023,1;;;18,2;81;247;1,5;0,0
14/08/2026;11:39:00;1023,0;;;18,1;81;293;1,2;0,0
14/08/2026;11:44:00;1023,0;;;18,1;81;336;1,5;0,0
14/08/2026;11:49:00;1022,9;;;18,0;81;306;1,4;0,2
14/08/2026;11:54:00;1022,9;;;18,0;81;306;1,8;0,0
14/08/2026;11:59:00;1023,0;;;17,9;81;306;2,1;0,0
14/08/2026;12:04:00;1023,1;;;17,9;81;287;1,9;0,0
14/08/2026;12:09:00;1023,0;;;17,9;81;268;2,0;0,0
14/08/2026;12:14:00;1023,0;;;17,9;81;280;2,0;0,0
14/08/2026;12:19:00;1022,9;;;17,9;81;304;2,3;0,0
14/08/2026;12:24:00;1022,9;;;17,9;82;311;1,8;0,0
14/08/2026;12:29:00;1022,8;;;17,9;82;331;1,5;0,0
14/08/2026;12:34:00;1022,8;;;17,8;82;271;1,9;0,0
14/08/2026;12:39:00;1022,8;;;17,8;82;328;1,7;0,2
14/08/2026;12:44:00;1022,8;;;17,9;82;309;1,4;0,0
14/08/2026;12:49:00;1022,8;;;17,9;82;307;1,5;0,0
14/08/2026;12:54:00;1022,8;;;17,9;82;343;1,2;0,0
14/08/2026;12:59:00;1022,6;;;17,9;82;328;1,1;0,0
14/08/2026;13:04:00;1022,5;;;18,0;83;332;1,5;0,0
14/08/2026;13:09:00;1022,4;;;18,0;82;357;1,7;0,0
14/08/2026;13:14:00;1022,4;;;18,0;82;346;1,8;0,0
14/08/2026;13:19:00;1022,3;;;18,0;82;337;1,6;0,2
14/08/2026;13:24:00;1022,3;;;18,0;82;289;2,4;0,0
14/08/2026;13:29:00;1022,2;;;18,0;82;280;2,7;0,0
14/08/2026;13:34:00;1022,2;;;18,0;81;268;1,9;0,2
14/08/2026;13:39:00;1022,1;;;17,9;82;264;2,0;0,0
14/08/2026;13:44:00;1022,1;;;17,9;82;268;2,3;0,0
14/08/2026;13:49:00;1022,1;;;17,9;82;266;1,6;0,0
14/08/2026;13:54:00;1022,0;;;18,0;82;274;2,2;0,0
14/08/2026;13:59:00;1022,0;;;18,0;82;254;1,8;0,0
14/08/2026;14:04:00;1022,0;;;18,0;82;184;1,7;0,0
14/08/2026;14:09:00;1022,0;;;18,0;81;215;1,8;0,2
14/08/2026;14:14:00;1022,0;;;18,0;81;248;1,7;0,0
14/08/2026;14:19:00;1021,9;;;17,9;81;254;2,1;0,2
14/08/2026;14:24:00;1021,8;;;17,9;81;255;2,0;0,0
14/08/2026;14:29:00;1021,7;;;17,9;81;276;2,3;0,2
14/08/2026;14:34:00;1021,7;;;17,9;81;262;2,1;0,0
14/08/2026;14:39:00;1021,7;;;17,9;81;275;2,2;0,2
14/08/2026;14:44:00;1021,7;;;17,9;82;271;1,9;0,0
14/08/2026;14:49:00;1021,7;;;17,9;82;261;2,1;0,0
14/08/2026;14:54:00;1021,7;;;17,9;82;311;1,9;0,0
14/08/2026;14:59:00;1021,7;;;17,9;82;288;1,9;0,0
14/08/2026;15:04:00;1021,7;;;17,9;82;227;1,4;0,2
14/08/2026;15:09:00;1021,7;;;17,9;81;248;1,5;0,4
14/08/2026;15:14:00;1021,7;;;17,9;81;214;1,5;0,4
14/08/2026;15:19:00;1021,7;;;17,9;81;244;1,6;0,2
14/08/2026;15:24:00;1021,6;;;17,9;81;265;2,7;0,4
14/08/2026;15:29:00;1021,6;;;17,9;81;282;2,9;0,0
14/08/2026;15:34:00;1021,6;;;17,9;81;276;2,6;0,2
14/08/2026;15:39:00;1021,6;;;17,8;81;273;2,0;0,0
14/08/2026;15:44:00;1021,6;;;17,8;81;291;2,1;0,2
14/08/2026;15:49:00;1021,6;;;17,8;81;261;2,5;0,0
14/08/2026;15:54:00;1021,5;;;17,8;81;276;2,0;0,0
14/08/2026;15:59:00;1021,5;;;17,8;81;309;1,9;0,0
14/08/2026;16:04:00;1021,5;;;17,8;81;298;2,8;0,0
14/08/2026;16:09:00;1021,4;;;17,7;81;340;2,3;0,0
14/08/2026;16:14:00;1021,4;;;17,7;81;285;2,3;0,2
14/08/2026;16:19:00;1021,4;;;17,7;81;328;2,3;0,0
14/08/2026;16:24:00;1021,4;;;17,7;81;291;2,3;0,0
14/08/2026;16:29:00;1021,4;;;17,7;81;280;2,7;0,0
14/08/2026;16:34:00;1021,3;;;17,7;81;322;2,3;0,2
14/08/2026;16:39:00;1021,2;;;17,7;82;340;2,7;0,0
14/08/2026;16:44:00;1021,2;;;17,7;81;299;2,2;0,0
14/08/2026;16:49:00;1021,1;;;17,7;81;286;2,5;0,0
14/08/2026;16:54:00;1021,1;;;17,7;81;305;2,6;0,0
14/08/2026;16:59:00;1021,2;;;17,7;81;300;1,7;0,2
14/08/2026;17:04:00;1021,3;;;17,7;81;313;2,5;0,0
14/08/2026;17:09:00;1021,3;;;17,7;81;311;1,7;0,2
14/08/2026;17:14:00;1021,3;;;17,7;81;332;2,8;0,2
14/08/2026;17:19:00;1021,1;;;17,6;81;327;3,4;0,2
14/08/2026;17:24:00;1021,0;;;17,6;81;279;3,4;0,0
14/08/2026;17:29:00;1021,1;;;17,6;81;277;2,6;0,2
14/08/2026;17:34:00;1021,1;;;17,6;81;319;2,8;0,2
14/08/2026;17:39:00;1021,1;;;17,6;81;323;2,0;0,0
14/08/2026;17:44:00;1021,2;;;17,6;81;324;2,4;0,2
14/08/2026;17:49:00;1021,2;;;17,6;81;20;2,2;0,2
14/08/2026;17:54:00;1021,2;;;17,6;81;26;2,9;0,0
14/08/2026;17:59:00;1021,0;;;17,6;81;15;2,4;0,0
14/08/2026;18:04:00;1021,1;;;17,6;81;345;2,5;0,0
14/08/2026;18:09:00;1021,1;;;17,6;81;333;2,6;0,2
14/08/2026;18:14:00;1021,1;;;17,6;81;320;3,3;0,0
14/08/2026;18:19:00;1021,2;;;17,6;81;332;2,4;0,0
14/08/2026;18:24:00;1021,2;;;17,5;81;326;2,1;0,0
14/08/2026;18:29:00;1021,2;;;17,5;81;304;2,3;0,0
14/08/2026;18:34:00;1021,2;;;17,5;81;266;2,9;0,2
14/08/2026;18:39:00;1021,1;;;17,5;81;353;3,1;0,0
14/08/2026;18:44:00;1021,1;;;17,5;81;17;3,7;0,2
14/08/2026;18:49:00;1021,2;;;17,5;81;8;2,3;0,0
14/08/2026;18:54:00;1021,1;;;17,5;81;19;2,9;0,0
14/08/2026;18:59:00;1021,2;;;17,4;81;349;1,8;0,2
14/08/2026;19:04:00;1021,4;;;17,4;81;24;3,8;0,0
14/08/2026;19:09:00;1021,5;;;17,4;81;23;4,1;0,0
14/08/2026;19:14:00;1021,5;;;17,4;82;13;2,5;0,0
14/08/2026;19:19:00;1021,4;;;17,4;82;323;2,5;0,0
14/08/2026;19:24:00;1021,5;;;17,4;82;311;2,3;0,0
14/08/2026;19:29:00;1021,4;;;17,4;82;351;2,9;0,2
14/08/2026;19:34:00;1021,6;;;17,5;82;40;3,0;0,0
14/08/2026;19:39:00;1021,7;;;17,5;82;356;2,3;0,0
14/08/2026;19:44:00;1021,5;;;17,5;81;305;2,8;0,0
14/08/2026;19:49:00;1021,3;;;17,5;82;24;3,2;0,0
14/08/2026;19:54:00;1021,4;;;17,5;82;360;3,2;0,0
14/08/2026;19:59:00;1021,5;;;17,5;82;27;4,1;0,0
14/08/2026;20:04:00;1021,7;;;17,5;82;11;1,8;0,0
14/08/2026;20:09:00;1021,7;;;17,5;82;22;4,2;0,0
14/08/2026;20:14:00;1021,7;;;17,6;82;40;4,8;0,0
14/08/2026;20:19:00;1021,5;;;17,6;82;34;5,8;0,0
14/08/2026;20:24:00;1021,4;;;17,7;82;38;6,2;0,0
14/08/2026;20:29:00;1021,5;;;17,7;82;25;5,0;0,0
14/08/2026;20:34:00;1021,8;;;17,8;82;39;4,3;0,0
14/08/2026;20:39:00;1022,1;;;17,9;83;40;5,8;0,0
14/08/2026;20:44:00;1022,1;;;18,0;83;33;5,9;0,0
14/08/2026;20:49:00;1022,3;;;18,1;82;38;5,5;0,0
14/08/2026;20:54:00;1022,5;;;18,2;82;39;5,0;0,0
14/08/2026;20:59:00;1022,6;;;18,2;82;38;6,6;0,0
14/08/2026;21:04:00;1022,7;;;18,3;82;40;6,5;0,0
14/08/2026;21:09:00;1022,8;;;18,4;82;35;6,0;0,0
14/08/2026;21:14:00;1022,9;;;18,4;81;37;6,1;0,0
14/08/2026;21:19:00;1023,1;;;18,4;81;33;5,8;0,0
14/08/2026;21:24:00;1023,1;;;18,4;81;24;4,3;0,2
14/08/2026;21:29:00;1023,2;;;18,3;81;14;3,3;0,0
14/08/2026;21:34:00;1023,2;;;18,2;81;34;3,7;0,0
14/08/2026;21:39:00;1023,2;;;18,2;81;38;5,5;0,0
14/08/2026;21:44:00;1023,2;;;18,1;81;37;5,9;0,0
14/08/2026;21:49:00;1023,2;;;18,1;81;40;5,4;0,2
14/08/2026;21:54:00;1023,0;;;18,0;81;40;5,1;0,0
14/08/2026;21:59:00;1022,6;;;18,0;81;39;6,0;0,0
14/08/2026;22:04:00;1022,4;;;18,0;81;39;5,7;0,0
14/08/2026;22:09:00;1022,3;;;17,9;82;41;5,4;0,2
14/08/2026;22:14:00;1022,3;;;17,9;82;36;4,9;0,0
14/08/2026;22:19:00;1022,5;;;17,9;82;35;4,2;0,2
14/08/2026;22:24:00;1022,7;;;17,9;82;38;3,5;0,4
14/08/2026;22:29:00;1022,7;;;17,9;82;41;5,1;0,2
14/08/2026;22:34:00;1022,4;;;17,9;82;41;5,2;0,2
14/08/2026;22:39:00;1022,3;;;17,9;82;35;4,3;0,2
14/08/2026;22:44:00;1022,6;;;17,9;82;37;4,5;0,2
14/08/2026;22:49:00;1022,8;;;17,8;82;35;4,2;0,6
14/08/2026;22:54:00;1022,7;;;17,8;82;31;4,4;0,2
14/08/2026;22:59:00;1022,7;;;17,9;82;27;4,9;0,4
14/08/2026;23:04:00;1022,6;;;17,9;82;29;5,0;0,2
14/08/2026;23:09:00;1022,6;;;17,9;82;26;5,5;0,2
14/08/2026;23:14:00;1022,6;;;17,9;82;27;5,1;0,4
14/08/2026;23:19:00;1022,7;;;17,9;82;25;4,5;0,6
14/08/2026;23:24:00;1022,8;;;17,9;82;24;4,7;0,4
14/08/2026;23:29:00;1022,8;;;17,9;82;26;5,1;0,2
14/08/2026;23:34:00;1022,5;;;17,9;82;28;5,1;0,0
14/08/2026;23:39:00;1022,5;;;17,9;82;26;4,6;0,2
14/08/2026;23:44:00;1022,6;;;17,9;82;29;4,0;0,2
14/08/2026;23:49:00;1022,7;;;17,9;82;27;4,0;0,0
14/08/2026;23:54:00;1022,8;;;17,9;82;24;3,4;0,0
14/08/2026;23:59:00;1022,8;;;18,0;82;23;3,1;0,0
